NETSAT-1

Last updated on Sun Apr 12 2026 00:03:55 GMT+0000 (Coordinated Universal Time)

1 46506U 20068W 26101.46147744 .00009410 00000+0 29703-3 0 9991 2 46506 97.8759 97.8489 0003588 222.1403 137.9563 15.33085555305070
UTC large
Height (km)
Speed (km/s)
/
Latitude / Longitude
Inclination (degrees)
Orbital Period (minutes)
Azimuth
Elevation
Range (km)
Doppler Factor

Next 0 passes for location: London (51.5072 / 0.1276)

Sorry there are no passes over London.
NETSAT-1